Simultaneous Nadir Overpasses (SNOs) Predictions

Prediction of SNOs between METOP-A and TERRA Satellite Orbit:

Table of predicted SNOs for the next 14.0 days since TLE Epoch: 1/2/2021
Index Date (METOP-A) Time (METOP-A) Lat,Lon (METOP-A) SZA (METOP-A ) Date (TERRA) Time (TERRA) Lat,Lon (TERRA) SZA (TERRA ) Distance(km) Time Diff (sec)
1 01/03/2021 22:37:45 -81.36, 68.41 73.37 01/03/2021 22:38:11 -81.36, 68.45 73.36 0.57 26
2 01/03/2021 23:28:26 81.36,-124.33 106.62 01/03/2021 23:27:38 81.35,-124.17 106.61 3.24 48
3 01/06/2021 18:12:08 -81.36, 134.71 73.74 01/06/2021 18:12:26 -81.35, 134.62 73.75 2.30 18
4 01/06/2021 19:02:48 81.35, -57.68 106.28 01/06/2021 19:01:52 81.35, -57.64 106.26 0.59 56
5 01/09/2021 13:46:30 -81.36,-159.01 74.16 01/09/2021 13:46:39 -81.35,-158.88 74.16 2.60 9
6 01/09/2021 14:37:09 81.34, 8.96 105.89 01/09/2021 14:36:05 81.35, 8.83 105.85 2.42 64
7 01/12/2021 08:30:16 81.41, 98.36 105.24 01/12/2021 08:31:29 81.29, 98.83 105.23 15.51 73
8 01/12/2021 09:20:52 -81.35, -92.36 74.61 01/12/2021 09:20:53 -81.35, -92.42 74.62 1.13 1
9 01/12/2021 10:11:32 81.35, 75.20 105.41 01/12/2021 10:10:19 81.35, 75.27 105.39 1.42 73
10 01/15/2021 04:04:34 81.36, 166.53 104.87 01/15/2021 04:05:40 81.35, 166.36 104.87 3.02 66



Historial Predications of SNOs between METOP-A and TERRA
